Time,TemperatureF,DewpointF,PressureIn,WindDirection,WindDirectionDegrees,WindSpeedMPH,WindSpeedGustMPH,Humidity,HourlyPrecipIn,Conditions,Clouds,dailyrainin,SoftwareType,DateUTC
2013-04-12 00:03:00,40.0,-99.9,-100.00,North,-999,-999.0,-999.0,-999,0.00,,,0.09,,2013-04-12 04:03:00,
2013-04-12 00:13:00,40.0,-99.9,-100.00,North,-999,-999.0,-999.0,-999,0.00,,,0.09,,2013-04-12 04:13:00,
2013-04-12 00:23:00,40.0,-99.9,-100.00,North,-999,-999.0,-999.0,-999,0.00,,,0.09,,2013-04-12 04:23:00,
2013-04-12 00:34:00,40.0,-99.9,-100.00,North,-999,-999.0,-999.0,-999,0.00,,,0.09,,2013-04-12 04:34:00,
2013-04-12 00:44:00,40.0,-99.9,-100.00,North,-999,-999.0,-999.0,-999,0.00,,,0.09,,2013-04-12 04:44:00,
2013-04-12 01:03:00,39.0,-99.9,-100.00,North,-999,-999.0,-999.0,-999,0.00,,,0.07,,2013-04-12 05:03:00,
2013-04-12 01:12:00,39.0,-99.9,-100.00,North,-999,-999.0,-999.0,-999,0.00,,,0.07,,2013-04-12 05:12:00,
2013-04-12 01:23:00,39.0,-99.9,-100.00,North,-999,-999.0,-999.0,-999,0.00,,,0.07,,2013-04-12 05:23:00,
2013-04-12 01:32:00,39.0,-99.9,-100.00,North,-999,-999.0,-999.0,-999,0.00,,,0.07,,2013-04-12 05:32:00,
2013-04-12 01:42:00,39.0,-99.9,-100.00,North,-999,-999.0,-999.0,-999,0.00,,,0.07,,2013-04-12 05:42:00,
2013-04-12 02:02:00,39.0,-99.9,-100.00,North,-999,-999.0,-999.0,-999,0.00,,,0.04,,2013-04-12 06:02:00,
2013-04-12 02:12:00,39.0,-99.9,-100.00,North,-999,-999.0,-999.0,-999,0.00,,,0.04,,2013-04-12 06:12:00,
2013-04-12 02:22:00,39.0,-99.9,-100.00,North,-999,-999.0,-999.0,-999,0.00,,,0.04,,2013-04-12 06:22:00,
2013-04-12 02:32:00,39.0,-99.9,-100.00,North,-999,-999.0,-999.0,-999,0.00,,,0.04,,2013-04-12 06:32:00,
2013-04-12 02:42:00,39.0,-99.9,-100.00,North,-999,-999.0,-999.0,-999,0.00,,,0.04,,2013-04-12 06:42:00,
2013-04-12 03:02:00,38.0,-99.9,-100.00,North,-999,-999.0,-999.0,-999,0.00,,,0.02,,2013-04-12 07:02:00,
2013-04-12 03:12:00,38.0,-99.9,-100.00,North,-999,-999.0,-999.0,-999,0.00,,,0.02,,2013-04-12 07:12:00,
2013-04-12 03:22:00,38.0,-99.9,-100.00,North,-999,-999.0,-999.0,-999,0.00,,,0.02,,2013-04-12 07:22:00,
2013-04-12 03:32:00,38.0,-99.9,-100.00,North,-999,-999.0,-999.0,-999,0.00,,,0.02,,2013-04-12 07:32:00,
2013-04-12 03:42:00,38.0,-99.9,-100.00,North,-999,-999.0,-999.0,-999,0.00,,,0.02,,2013-04-12 07:42:00,
2013-04-12 04:03:00,37.0,-99.9,-100.00,North,-999,-999.0,-999.0,-999,0.00,,,0.01,,2013-04-12 08:03:00,
2013-04-12 04:12:00,37.0,-99.9,-100.00,North,-999,-999.0,-999.0,-999,0.00,,,0.01,,2013-04-12 08:12:00,
2013-04-12 04:22:00,37.0,-99.9,-100.00,North,-999,-999.0,-999.0,-999,0.00,,,0.01,,2013-04-12 08:22:00,
2013-04-12 04:33:00,37.0,-99.9,-100.00,North,-999,-999.0,-999.0,-999,0.00,,,0.01,,2013-04-12 08:33:00,
2013-04-12 04:43:00,37.0,-99.9,-100.00,North,-999,-999.0,-999.0,-999,0.00,,,0.01,,2013-04-12 08:43:00,
2013-04-12 05:03:00,34.0,-99.9,-100.00,North,-999,-999.0,-999.0,-999,0.00,,,0.00,,2013-04-12 09:03:00,
2013-04-12 05:12:00,34.0,-99.9,-100.00,North,-999,-999.0,-999.0,-999,0.00,,,0.00,,2013-04-12 09:12:00,
2013-04-12 05:22:00,34.0,-99.9,-100.00,North,-999,-999.0,-999.0,-999,0.00,,,0.00,,2013-04-12 09:22:00,
2013-04-12 05:33:00,34.0,-99.9,-100.00,North,-999,-999.0,-999.0,-999,0.00,,,0.00,,2013-04-12 09:33:00,
2013-04-12 05:44:00,34.0,-99.9,-100.00,North,-999,-999.0,-999.0,-999,0.00,,,0.00,,2013-04-12 09:44:00,
2013-04-12 06:03:00,32.0,-99.9,-100.00,North,-999,-999.0,-999.0,-999,0.03,,,0.03,,2013-04-12 10:03:00,
2013-04-12 06:13:00,32.0,-99.9,-100.00,North,-999,-999.0,-999.0,-999,0.03,,,0.03,,2013-04-12 10:13:00,
2013-04-12 06:23:00,32.0,-99.9,-100.00,North,-999,-999.0,-999.0,-999,0.03,,,0.03,,2013-04-12 10:23:00,
2013-04-12 06:34:00,32.0,-99.9,-100.00,North,-999,-999.0,-999.0,-999,0.03,,,0.03,,2013-04-12 10:34:00,
2013-04-12 06:43:00,32.0,-99.9,-100.00,North,-999,-999.0,-999.0,-999,0.03,,,0.03,,2013-04-12 10:43:00,
2013-04-12 07:03:00,32.0,-99.9,-100.00,North,-999,-999.0,-999.0,-999,0.00,,,0.03,,2013-04-12 11:03:00,
2013-04-12 07:13:00,32.0,-99.9,-100.00,North,-999,-999.0,-999.0,-999,0.00,,,0.03,,2013-04-12 11:13:00,
2013-04-12 07:22:00,32.0,-99.9,-100.00,North,-999,-999.0,-999.0,-999,0.00,,,0.03,,2013-04-12 11:22:00,
2013-04-12 07:33:00,32.0,-99.9,-100.00,North,-999,-999.0,-999.0,-999,0.00,,,0.03,,2013-04-12 11:33:00,
2013-04-12 07:43:00,32.0,-99.9,-100.00,North,-999,-999.0,-999.0,-999,0.00,,,0.03,,2013-04-12 11:43:00,
2013-04-12 08:13:00,31.0,-99.9,-100.00,North,-999,-999.0,-999.0,-999,0.00,,,0.03,,2013-04-12 12:13:00,
2013-04-12 08:22:00,31.0,-99.9,-100.00,North,-999,-999.0,-999.0,-999,0.00,,,0.03,,2013-04-12 12:22:00,
2013-04-12 08:33:00,31.0,-99.9,-100.00,North,-999,-999.0,-999.0,-999,0.00,,,0.03,,2013-04-12 12:33:00,
2013-04-12 08:43:00,31.0,-99.9,-100.00,North,-999,-999.0,-999.0,-999,0.00,,,0.03,,2013-04-12 12:43:00,
2013-04-12 09:04:00,31.0,-99.9,-100.00,North,-999,-999.0,-999.0,-999,0.00,,,0.03,,2013-04-12 13:04:00,
2013-04-12 09:13:00,31.0,-99.9,-100.00,North,-999,-999.0,-999.0,-999,0.00,,,0.03,,2013-04-12 13:13:00,
2013-04-12 09:23:00,31.0,-99.9,-100.00,North,-999,-999.0,-999.0,-999,0.00,,,0.03,,2013-04-12 13:23:00,
2013-04-12 09:33:00,31.0,-99.9,-100.00,North,-999,-999.0,-999.0,-999,0.00,,,0.03,,2013-04-12 13:33:00,
2013-04-12 09:43:00,31.0,-99.9,-100.00,North,-999,-999.0,-999.0,-999,0.00,,,0.03,,2013-04-12 13:43:00,
2013-04-12 10:04:00,32.0,-99.9,-100.00,North,-999,-999.0,-999.0,-999,0.00,,,0.03,,2013-04-12 14:04:00,
2013-04-12 10:13:00,32.0,-99.9,-100.00,North,-999,-999.0,-999.0,-999,0.00,,,0.03,,2013-04-12 14:13:00,
2013-04-12 10:33:00,32.0,-99.9,-100.00,North,-999,-999.0,-999.0,-999,0.00,,,0.03,,2013-04-12 14:33:00,
2013-04-12 10:43:00,32.0,-99.9,-100.00,North,-999,-999.0,-999.0,-999,0.00,,,0.03,,2013-04-12 14:43:00,
2013-04-12 11:12:00,32.0,-99.9,-100.00,North,-999,-999.0,-999.0,-999,0.00,,,0.03,,2013-04-12 15:12:00,
2013-04-12 11:22:00,32.0,-99.9,-100.00,North,-999,-999.0,-999.0,-999,0.00,,,0.03,,2013-04-12 15:22:00,
2013-04-12 11:33:00,32.0,-99.9,-100.00,North,-999,-999.0,-999.0,-999,0.00,,,0.03,,2013-04-12 15:33:00,
2013-04-12 11:43:00,32.0,-99.9,-100.00,North,-999,-999.0,-999.0,-999,0.00,,,0.03,,2013-04-12 15:43:00,
2013-04-12 12:04:00,32.0,-99.9,-100.00,North,-999,-999.0,-999.0,-999,0.01,,,0.04,,2013-04-12 16:04:00,
2013-04-12 12:14:00,32.0,-99.9,-100.00,North,-999,-999.0,-999.0,-999,0.01,,,0.04,,2013-04-12 16:14:00,
2013-04-12 12:34:00,32.0,-99.9,-100.00,North,-999,-999.0,-999.0,-999,0.01,,,0.04,,2013-04-12 16:34:00,
2013-04-12 12:43:00,32.0,-99.9,-100.00,North,-999,-999.0,-999.0,-999,0.01,,,0.04,,2013-04-12 16:43:00,
2013-04-12 12:45:00,31.0,-99.9,-100.00,North,-999,-999.0,-999.0,-999,0.06,,,0.10,,2013-04-12 16:45:00,
2013-04-12 13:13:00,31.0,-99.9,-100.00,North,-999,-999.0,-999.0,-999,0.06,,,0.10,,2013-04-12 17:13:00,
2013-04-12 13:23:00,31.0,-99.9,-100.00,North,-999,-999.0,-999.0,-999,0.06,,,0.10,,2013-04-12 17:23:00,
2013-04-12 13:34:00,31.0,-99.9,-100.00,North,-999,-999.0,-999.0,-999,0.06,,,0.10,,2013-04-12 17:34:00,
2013-04-12 14:14:00,32.0,-99.9,-100.00,North,-999,-999.0,-999.0,-999,0.08,,,0.18,,2013-04-12 18:14:00,
2013-04-12 15:27:00,32.0,-99.9,-100.00,North,-999,-999.0,-999.0,-999,0.07,,,0.25,,2013-04-12 19:27:00,
2013-04-12 15:33:00,32.0,-99.9,-100.00,North,-999,-999.0,-999.0,-999,0.07,,,0.25,,2013-04-12 19:33:00,
2013-04-12 15:44:00,32.0,-99.9,-100.00,North,-999,-999.0,-999.0,-999,0.07,,,0.25,,2013-04-12 19:44:00,
2013-04-12 16:02:00,32.0,-99.9,-100.00,North,-999,-999.0,-999.0,-999,0.05,,,0.30,,2013-04-12 20:02:00,
2013-04-12 16:13:00,32.0,-99.9,-100.00,North,-999,-999.0,-999.0,-999,0.05,,,0.30,,2013-04-12 20:13:00,
2013-04-12 16:23:00,32.0,-99.9,-100.00,North,-999,-999.0,-999.0,-999,0.05,,,0.30,,2013-04-12 20:23:00,
2013-04-12 16:33:00,32.0,-99.9,-100.00,North,-999,-999.0,-999.0,-999,0.05,,,0.30,,2013-04-12 20:33:00,
2013-04-12 16:43:00,32.0,-99.9,-100.00,North,-999,-999.0,-999.0,-999,0.05,,,0.30,,2013-04-12 20:43:00,
2013-04-12 17:03:00,33.0,-99.9,-100.00,North,-999,-999.0,-999.0,-999,0.03,,,0.33,,2013-04-12 21:03:00,
2013-04-12 17:12:00,33.0,-99.9,-100.00,North,-999,-999.0,-999.0,-999,0.03,,,0.33,,2013-04-12 21:12:00,
2013-04-12 17:22:00,33.0,-99.9,-100.00,North,-999,-999.0,-999.0,-999,0.03,,,0.33,,2013-04-12 21:22:00,
2013-04-12 17:33:00,33.0,-99.9,-100.00,North,-999,-999.0,-999.0,-999,0.03,,,0.33,,2013-04-12 21:33:00,
2013-04-12 17:43:00,33.0,-99.9,-100.00,North,-999,-999.0,-999.0,-999,0.03,,,0.33,,2013-04-12 21:43:00,
2013-04-12 18:03:00,33.0,-99.9,-100.00,North,-999,-999.0,-999.0,-999,0.00,,,0.33,,2013-04-12 22:03:00,
2013-04-12 18:13:00,33.0,-99.9,-100.00,North,-999,-999.0,-999.0,-999,0.00,,,0.33,,2013-04-12 22:13:00,
2013-04-12 18:23:00,33.0,-99.9,-100.00,North,-999,-999.0,-999.0,-999,0.00,,,0.33,,2013-04-12 22:23:00,
2013-04-12 18:33:00,33.0,-99.9,-100.00,North,-999,-999.0,-999.0,-999,0.00,,,0.33,,2013-04-12 22:33:00,
2013-04-12 18:43:00,33.0,-99.9,-100.00,North,-999,-999.0,-999.0,-999,0.00,,,0.33,,2013-04-12 22:43:00,
2013-04-12 19:04:00,32.0,-99.9,-100.00,North,-999,-999.0,-999.0,-999,0.01,,,0.34,,2013-04-12 23:04:00,
2013-04-12 19:12:00,32.0,-99.9,-100.00,North,-999,-999.0,-999.0,-999,0.01,,,0.34,,2013-04-12 23:12:00,
2013-04-12 19:22:00,32.0,-99.9,-100.00,North,-999,-999.0,-999.0,-999,0.01,,,0.34,,2013-04-12 23:22:00,
2013-04-12 19:32:00,32.0,-99.9,-100.00,North,-999,-999.0,-999.0,-999,0.01,,,0.34,,2013-04-12 23:32:00,
2013-04-12 19:43:00,32.0,-99.9,-100.00,North,-999,-999.0,-999.0,-999,0.01,,,0.34,,2013-04-12 23:43:00,
2013-04-12 20:02:00,33.0,-99.9,-100.00,North,-999,-999.0,-999.0,-999,0.01,,,0.35,,2013-04-13 00:02:00,
2013-04-12 20:12:00,33.0,-99.9,-100.00,North,-999,-999.0,-999.0,-999,0.01,,,0.35,,2013-04-13 00:12:00,
2013-04-12 20:22:00,33.0,-99.9,-100.00,North,-999,-999.0,-999.0,-999,0.01,,,0.35,,2013-04-13 00:22:00,
2013-04-12 20:32:00,33.0,-99.9,-100.00,North,-999,-999.0,-999.0,-999,0.01,,,0.35,,2013-04-13 00:32:00,
2013-04-12 20:42:00,33.0,-99.9,-100.00,North,-999,-999.0,-999.0,-999,0.01,,,0.35,,2013-04-13 00:42:00,
2013-04-12 21:03:00,33.0,-99.9,-100.00,North,-999,-999.0,-999.0,-999,0.00,,,0.35,,2013-04-13 01:03:00,
2013-04-12 21:13:00,33.0,-99.9,-100.00,North,-999,-999.0,-999.0,-999,0.00,,,0.35,,2013-04-13 01:13:00,
2013-04-12 21:23:00,33.0,-99.9,-100.00,North,-999,-999.0,-999.0,-999,0.00,,,0.35,,2013-04-13 01:23:00,
2013-04-12 21:33:00,33.0,-99.9,-100.00,North,-999,-999.0,-999.0,-999,0.00,,,0.35,,2013-04-13 01:33:00,
2013-04-12 21:43:00,33.0,-99.9,-100.00,North,-999,-999.0,-999.0,-999,0.00,,,0.35,,2013-04-13 01:43:00,
2013-04-12 22:02:00,33.0,-99.9,-100.00,North,-999,-999.0,-999.0,-999,0.01,,,0.36,,2013-04-13 02:02:00,
2013-04-12 22:12:00,33.0,-99.9,-100.00,North,-999,-999.0,-999.0,-999,0.01,,,0.36,,2013-04-13 02:12:00,
2013-04-12 22:23:00,33.0,-99.9,-100.00,North,-999,-999.0,-999.0,-999,0.01,,,0.36,,2013-04-13 02:23:00,
2013-04-12 22:33:00,33.0,-99.9,-100.00,North,-999,-999.0,-999.0,-999,0.01,,,0.36,,2013-04-13 02:33:00,
2013-04-12 22:43:00,33.0,-99.9,-100.00,North,-999,-999.0,-999.0,-999,0.01,,,0.36,,2013-04-13 02:43:00,
2013-04-12 23:03:00,33.0,-99.9,-100.00,North,-999,-999.0,-999.0,-999,0.00,,,0.36,,2013-04-13 03:03:00,
2013-04-12 23:13:00,33.0,-99.9,-100.00,North,-999,-999.0,-999.0,-999,0.00,,,0.36,,2013-04-13 03:13:00,
2013-04-12 23:23:00,33.0,-99.9,-100.00,North,-999,-999.0,-999.0,-999,0.00,,,0.36,,2013-04-13 03:23:00,
2013-04-12 23:33:00,33.0,-99.9,-100.00,North,-999,-999.0,-999.0,-999,0.00,,,0.36,,2013-04-13 03:33:00,
2013-04-12 23:43:00,33.0,-99.9,-100.00,North,-999,-999.0,-999.0,-999,0.00,,,0.36,,2013-04-13 03:43:00,